Wind_Speed
6 3 1 3 4 5 6 6 5 5 6 6 7 7 9 11 10 9 7 7 11 6 5 5 7 6 7 7 6 2 3 5 7 4 3 7 1 6 3 6 2 6 6 4 12
7 4 3 3 4 5 5 5 5 5 6 6 5 5 7 9 9 12 9 10 8 7 8 9 8 9 9 10 5 4 3 5 2 4 5 4 4 7 5 7 8 9 10 9 14
10 7 5 4 4 5 5 5 5 5 6 6 4 4 5 7 6 5 13 14 7 8 11 9 6 9 11 8 8 7 4 3 4 7 6 6 7 8 5 7 18 17 21 21 19
15 11 7 5 5 5 5 5 5 5 6 5 5 5 6 5 3 3 5 8 7 8 10 7 8 8 6 8 15 5 12 14 9 2 2 4 6 7 14 17 11 6 8 26 25
18 15 11 7 6 5 5 6 5 6 5 6 8 8 7 5 8 7 6 5 6 7 10 9 10 12 7 5 7 8 8 15 9 9 8 12 13 8 19 20 19 19 14 17 23
19 18 16 11 6 6 6 6 6 6 6 7 8 8 7 6 8 6 7 6 7 8 9 11 5 8 10 9 6 9 9 15 12 13 9 6 7 7 8 10 20 25 22 20 24
20 21 18 15 8 5 5 7 7 8 8 8 8 8 9 15 7 7 6 7 8 8 7 8 11 6 5 6 7 7 8 9 13 15 5 2 8 13 32 14 10 13 26 26 24
20 21 20 16 9 7 9 8 8 10 10 9 9 7 9 9 13 12 9 7 8 9 11 11 10 6 8 7 5 4 6 4 4 12 6 7 8 8 15 20 22 19 18 26 28
20 20 20 18 13 7 10 8 8 9 10 8 6 6 7 6 13 11 10 5 6 6 6 4 5 5 5 3 5 7 6 8 4 7 6 7 7 4 3 8 14 18 21 24 28
20 20 20 19 13 9 10 9 6 5 6 7 7 5 11 5 6 13 13 11 4 6 3 5 5 3 4 5 6 5 5 8 7 9 8 8 15 13 22 11 18 22 22 27 29
20 19 19 19 13 10 10 5 5 3 5 10 6 6 5 9 6 11 12 12 7 6 5 8 4 11 12 13 15 11 11 10 12 5 7 11 12 15 15 22 21 29 30 32 31
19 19 19 18 11 11 9 3 4 6 11 19 24 20 13 7 5 11 13 11 8 8 9 3 11 14 12 11 7 8 10 11 10 4 5 8 12 14 14 15 25 26 26 30 29
20 19 17 17 9 14 9 7 8 8 5 2 6 10 14 11 8 18 20 11 6 8 10 12 6 3 8 11 8 10 10 11 11 4 6 5 7 10 13 16 27 30 16 13 21
19 19 18 14 4 12 5 11 10 7 4 4 3 3 7 6 5 10 17 7 6 7 10 12 15 19 11 8 8 11 6 6 9 4 4 4 8 8 11 16 7 15 14 12 13
18 18 15 13 11 6 7 10 9 3 5 4 4 4 4 6 3 4 10 6 7 7 3 6 5 4 6 14 8 8 2 2 3 4 6 5 5 6 5 7 10 9 17 14 12
18 16 15 12 10 5 10 9 4 2 7 3 5 4 4 8 4 3 4 5 2 6 10 12 3 3 5 2 1 5 2 2 1 1 5 10 10 4 7 9 3 8 17 13 8
18 15 13 10 5 9 8 3 2 4 1 4 1 3 5 4 6 8 6 6 6 3 7 8 20 6 5 3 2 3 3 3 2 1 8 7 9 13 3 2 6 8 14 11 8
18 10 7 7 7 6 2 3 5 5 5 3 1 4 4 3 6 9 5 9 12 8 5 4 6 14 8 10 7 7 8 5 6 5 4 5 6 6 8 8 13 14 19 14 11
15 4 6 8 3 1 0 4 3 6 5 9 10 7 6 7 4 5 10 10 7 15 8 5 7 5 5 3 6 4 6 7 6 10 4 5 10 10 4 3 4 7 11 10 9
12 10 11 9 4 2 2 4 5 12 10 8 6 6 12 12 4 6 5 3 1 1 5 3 12 4 4 4 3 1 3 2 3 4 6 6 5 4 15 21 15 12 4 8 12
9 3 15 6 3 1 2 4 5 17 19 9 13 14 17 17 17 17 13 7 17 11 6 5 4 5 6 6 7 3 3 5 3 6 7 8 3 11 18 20 20 21 34 10 9
10 2 15 9 3 2 3 7 11 12 18 7 6 8 6 11 7 9 12 10 25 15 8 9 5 7 12 9 10 12 13 15 11 13 5 13 7 12 18 19 30 33 40 26 22
5 4 12 6 3 4 8 6 4 6 6 8 7 7 8 6 6 8 7 11 22 16 11 12 5 8 11 8 16 13 4 13 14 8 16 12 8 16 23 26 36 35 40 34 31
6 3 8 11 11 5 5 5 7 10 4 5 3 2 5 4 5 6 11 8 23 15 7 7 4 6 5 4 7 4 12 12 7 4 8 6 9 26 25 23 26 32 32 35 35
8 4 4 4 6 7 7 5 8 8 11 10 1 4 7 5 16 10 14 12 12 22 5 5 5 8 16 16 15 10 11 12 6 6 4 8 9 15 16 14 21 25 28 32 32
5 6 8 5 8 7 6 9 8 11 7 7 8 13 13 11 13 11 14 7 9 9 9 5 5 14 16 15 14 14 15 7 12 9 6 8 4 15 20 15 20 23 25 27 28
9 5 3 5 6 4 5 10 10 13 8 9 15 14 13 12 19 24 25 27 21 16 16 14 4 3 7 10 12 3 13 10 12 14 6 8 7 16 15 13 16 20 22 23 25
Wind_Direction
22 10 308 248 239 246 249 244 249 250 251 255 261 269 279 283 281 270 254 247 231 248 200 164 166 183 189 218 222 260 286 270 281 356 55 110 227 171 243 281 177 198 253 160 183
16 358 316 280 264 258 253 252 253 250 248 251 260 274 292 293 287 255 246 234 245 216 180 169 184 186 203 216 199 215 234 259 62 3 342 26 202 267 177 228 252 209 215 196 202
18 3 340 308 278 263 258 261 260 253 245 244 244 271 308 314 312 245 230 238 231 189 162 200 216 194 230 213 206 205 230 278 335 21 344 289 283 236 266 251 242 219 218 220 224
24 13 352 321 289 272 268 267 266 260 251 247 248 267 318 303 306 261 201 205 204 187 183 177 196 195 228 215 219 249 247 255 290 269 269 250 277 275 243 230 261 271 213 225 221
20 17 4 334 299 281 274 269 261 254 253 266 260 275 307 280 263 258 241 218 201 192 187 189 208 216 258 244 245 216 253 275 279 267 251 266 264 249 262 253 253 250 234 224 225
18 15 11 358 332 295 273 263 254 251 258 275 277 283 288 255 257 259 243 224 208 195 195 201 208 254 293 282 283 323 312 294 289 230 226 234 260 259 253 256 247 237 238 224 230
15 14 13 14 9 354 302 274 265 260 259 269 275 288 265 244 247 251 229 216 212 201 210 225 235 234 333 260 316 302 292 274 238 216 230 63 274 230 254 233 226 230 231 234 220
14 12 11 9 1 354 338 305 283 269 264 267 271 279 259 256 234 247 219 213 213 217 200 215 228 238 263 315 273 237 236 276 332 149 155 138 268 276 265 214 232 236 235 227 232
10 9 7 4 358 341 344 330 304 272 261 261 271 266 263 243 227 227 211 209 191 204 209 208 172 218 156 227 274 213 259 226 218 164 123 177 269 305 167 206 234 232 235 229 228
6 5 2 2 2 357 351 341 328 291 260 253 223 267 238 254 207 179 193 193 166 181 168 181 206 221 201 205 227 228 227 266 242 216 202 190 251 257 272 242 239 239 238 230 230
359 1 359 359 2 8 3 10 353 335 245 213 238 213 174 211 205 193 197 174 170 200 205 192 199 218 211 215 240 272 288 283 285 177 167 228 247 263 254 251 247 241 237 233 232
352 353 356 356 357 9 10 51 348 301 296 271 256 247 242 197 178 186 178 182 191 212 217 177 237 244 253 263 264 274 266 260 283 260 179 269 263 270 270 253 247 247 245 243 236
344 345 349 350 348 354 6 7 336 323 266 280 225 226 225 223 221 197 184 207 210 226 229 223 221 67 238 249 233 251 246 263 259 271 210 274 272 255 259 251 247 250 251 233 226
336 338 340 350 347 345 332 341 338 334 279 179 176 165 181 201 233 217 206 211 228 239 231 250 249 248 241 240 227 248 239 264 258 250 241 116 288 252 277 276 218 214 213 194 185
328 327 333 335 326 330 321 331 334 1 326 89 138 165 159 205 138 193 199 215 250 214 237 237 211 223 237 237 229 264 93 310 308 272 318 240 268 266 208 284 277 194 196 183 191
317 316 320 319 321 317 325 321 327 234 247 141 124 168 184 204 197 135 190 201 298 273 259 255 236 240 228 79 47 120 131 197 216 193 261 221 205 257 223 235 274 106 121 133 163
314 301 303 315 261 291 308 324 264 217 269 135 114 170 243 189 207 185 180 187 204 192 221 234 238 196 186 211 101 182 155 295 276 174 236 205 207 242 302 139 132 136 135 153 178
330 297 293 302 290 295 231 242 243 282 285 131 132 263 237 303 206 189 244 234 215 253 300 253 305 181 174 213 180 179 180 178 230 210 274 64 232 250 241 86 109 110 156 165 166
357 61 71 341 332 190 187 217 273 16 8 354 316 250 250 211 205 195 217 249 261 198 209 261 241 33 157 145 158 180 195 241 297 286 277 239 273 300 71 100 99 124 134 145 161
34 83 22 17 27 91 261 299 358 31 357 344 314 311 306 307 215 206 218 25 237 29 330 260 293 233 103 74 291 188 314 94 224 254 222 262 257 267 30 9 20 13 302 168 170
54 85 4 354 31 211 255 357 9 11 29 348 338 317 312 313 310 305 291 332 357 339 341 352 254 253 120 197 170 169 236 218 254 221 236 263 254 2 29 22 9 354 350 15 84
38 61 357 22 266 201 28 348 346 4 14 1 10 357 4 348 327 314 305 19 9 5 10 338 287 273 244 256 208 216 224 216 229 241 233 238 234 40 38 25 15 5 349 10 72
27 0 357 34 35 21 7 338 325 21 30 7 341 35 22 334 319 332 346 6 22 14 0 348 303 275 292 240 246 257 332 356 336 289 254 259 241 37 36 29 15 17 13 31 41
17 17 360 50 69 9 3 318 352 349 94 359 261 172 339 315 265 304 312 323 329 309 292 346 297 306 297 7 338 308 1 359 338 267 302 265 314 6 9 17 16 14 18 27 33
40 59 21 346 10 343 321 313 356 353 6 317 115 351 14 316 311 279 328 319 309 298 249 169 267 311 301 296 300 22 17 41 58 356 44 14 64 3 356 14 17 17 21 24 24
59 13 351 308 338 340 315 46 356 355 331 316 329 338 325 302 295 322 317 312 280 306 350 321 285 323 290 281 263 90 35 50 52 16 22 68 73 358 350 22 21 22 24 20 16
56 36 350 320 356 340 41 0 331 335 308 328 331 311 304 310 327 302 288 276 263 275 283 278 257 341 269 302 320 85 20 76 80 37 7 41 350 338 343 17 27 18 18 17 10
Height
1479 1478 1478 1478 1478 1478 1479 1479 1478 1478 1478 1479 1480 1480 1480 1480 1478 1477 1476 1478 1477 1478 1479 1481 1483 1485 1487 1488 1488 1488 1491 1487 1475 1469 1470 1471 1473 1474 1475 1475 1475 1476 1478 1478 1480
1479 1479 1478 1478 1477 1478 1478 1477 1477 1477 1477 1478 1479 1479 1479 1477 1476 1474 1475 1475 1476 1477 1478 1480 1482 1484 1485 1485 1486 1486 1487 1476 1468 1469 1470 1470 1473 1473 1474 1474 1474 1476 1476 1477 1478
1480 1478 1477 1476 1477 1477 1476 1476 1476 1476 1476 1477 1478 1478 1477 1475 1475 1471 1471 1474 1474 1475 1477 1480 1482 1483 1483 1482 1483 1480 1482 1469 1469 1469 1470 1471 1470 1471 1471 1472 1469 1470 1472 1472 1475
1480 1478 1476 1476 1475 1475 1475 1475 1475 1475 1476 1476 1477 1477 1476 1475 1475 1470 1470 1472 1473 1474 1476 1478 1480 1482 1480 1479 1476 1478 1472 1470 1469 1469 1471 1471 1469 1467 1466 1465 1465 1467 1467 1466 1468
1481 1478 1476 1475 1474 1473 1473 1473 1474 1475 1475 1476 1476 1476 1475 1475 1471 1469 1470 1471 1472 1474 1475 1478 1479 1480 1477 1472 1471 1472 1470 1468 1467 1468 1469 1469 1467 1467 1460 1461 1462 1464 1465 1464 1465
1482 1479 1476 1473 1472 1472 1472 1472 1473 1473 1474 1475 1475 1474 1474 1474 1467 1468 1468 1470 1471 1473 1475 1476 1476 1476 1474 1472 1471 1467 1468 1466 1465 1464 1466 1466 1464 1464 1452 1453 1455 1459 1458 1461 1461
1482 1479 1476 1473 1472 1471 1471 1471 1471 1471 1472 1473 1473 1472 1471 1468 1466 1466 1467 1469 1470 1472 1474 1474 1474 1475 1473 1470 1469 1468 1471 1464 1458 1459 1463 1463 1463 1457 1443 1450 1451 1452 1454 1455 1458
1482 1479 1477 1474 1472 1471 1471 1470 1469 1469 1470 1471 1471 1471 1467 1464 1464 1464 1466 1467 1469 1470 1471 1470 1472 1473 1473 1471 1469 1470 1467 1468 1449 1451 1460 1463 1462 1442 1440 1444 1445 1447 1449 1451 1451
1483 1480 1477 1475 1472 1471 1470 1468 1467 1467 1467 1468 1470 1471 1466 1462 1461 1462 1464 1466 1467 1468 1469 1469 1471 1471 1472 1473 1474 1465 1471 1463 1455 1451 1457 1462 1456 1441 1441 1442 1442 1442 1443 1444 1446
1483 1480 1478 1474 1471 1470 1469 1467 1466 1465 1466 1467 1468 1472 1462 1460 1458 1461 1463 1466 1466 1467 1468 1469 1470 1470 1469 1472 1481 1462 1463 1455 1453 1451 1452 1458 1452 1444 1441 1442 1439 1438 1438 1438 1438
1483 1480 1477 1475 1472 1470 1468 1466 1468 1467 1465 1460 1459 1457 1457 1457 1458 1459 1460 1463 1465 1467 1467 1465 1470 1467 1460 1458 1454 1454 1457 1457 1448 1444 1449 1450 1446 1437 1435 1434 1430 1428 1428 1430 1431
1482 1480 1477 1474 1472 1470 1468 1468 1468 1469 1461 1452 1450 1454 1455 1455 1456 1457 1459 1462 1462 1463 1461 1465 1465 1454 1452 1450 1451 1453 1455 1454 1446 1440 1447 1445 1441 1432 1427 1423 1420 1418 1420 1422 1425
1481 1478 1476 1473 1471 1470 1468 1468 1467 1466 1463 1447 1446 1449 1453 1455 1452 1451 1455 1456 1456 1458 1457 1458 1447 1445 1448 1449 1452 1452 1454 1452 1451 1441 1443 1444 1442 1432 1417 1410 1409 1411 1413 1414 1417
1479 1476 1474 1473 1473 1469 1467 1467 1465 1464 1463 1446 1447 1448 1450 1451 1450 1449 1451 1454 1452 1453 1452 1448 1441 1444 1447 1448 1446 1453 1440 1442 1443 1448 1462 1438 1450 1424 1416 1407 1406 1405 1407 1409 1414
1476 1474 1472 1471 1470 1469 1468 1465 1464 1465 1479 1443 1447 1447 1448 1450 1449 1449 1450 1451 1450 1448 1449 1444 1439 1443 1444 1439 1442 1444 1441 1442 1441 1449 1452 1445 1459 1419 1409 1409 1402 1401 1404 1408 1412
1473 1471 1469 1469 1468 1468 1466 1464 1464 1469 1477 1443 1444 1446 1448 1447 1446 1449 1450 1452 1450 1448 1444 1441 1438 1439 1437 1436 1437 1440 1442 1444 1445 1452 1467 1443 1446 1417 1409 1400 1395 1401 1405 1408 1413
1468 1467 1466 1466 1466 1465 1464 1464 1468 1471 1436 1444 1443 1444 1444 1441 1442 1445 1447 1450 1450 1456 1449 1434 1432 1431 1434 1440 1441 1442 1446 1467 1468 1474 1458 1424 1434 1411 1398 1396 1398 1404 1405 1408 1412
1461 1461 1462 1462 1462 1462 1463 1465 1472 1445 1439 1439 1441 1440 1443 1434 1435 1437 1441 1443 1439 1440 1441 1440 1444 1425 1427 1430 1433 1442 1443 1460 1451 1453 1437 1427 1436 1414 1391 1395 1396 1398 1402 1406 1412
1459 1459 1462 1461 1461 1462 1465 1466 1455 1450 1450 1449 1443 1441 1439 1433 1436 1435 1437 1437 1428 1428 1441 1431 1425 1419 1420 1420 1425 1431 1444 1430 1441 1432 1446 1426 1407 1395 1397 1395 1398 1401 1405 1410 1414
1460 1461 1463 1462 1462 1463 1464 1461 1455 1458 1458 1454 1455 1444 1445 1439 1441 1436 1432 1422 1424 1423 1422 1420 1429 1414 1421 1423 1424 1425 1429 1441 1443 1447 1441 1424 1414 1420 1415 1423 1415 1418 1416 1414 1416
1461 1463 1465 1463 1463 1464 1465 1462 1462 1462 1464 1464 1460 1456 1453 1451 1443 1438 1430 1429 1439 1431 1425 1423 1426 1418 1422 1424 1423 1432 1432 1429 1425 1422 1427 1428 1429 1463 1454 1450 1445 1440 1432 1425 1426
1463 1465 1467 1464 1465 1461 1465 1471 1471 1468 1468 1469 1466 1466 1468 1465 1459 1447 1439 1447 1452 1446 1443 1436 1425 1422 1413 1405 1405 1407 1409 1412 1418 1418 1415 1409 1421 1478 1463 1459 1451 1445 1435 1433 1431
1471 1471 1470 1465 1469 1471 1474 1474 1472 1473 1475 1476 1475 1478 1479 1476 1472 1462 1459 1457 1457 1458 1458 1452 1429 1424 1414 1408 1404 1403 1407 1415 1413 1406 1407 1412 1410 1457 1463 1459 1456 1454 1450 1447 1442
1475 1474 1475 1475 1479 1482 1482 1476 1477 1476 1479 1480 1480 1479 1477 1476 1473 1468 1466 1457 1456 1457 1459 1457 1447 1435 1425 1433 1439 1428 1435 1442 1436 1421 1419 1417 1428 1459 1461 1464 1467 1464 1463 1458 1453
1480 1486 1488 1484 1482 1485 1484 1481 1481 1480 1482 1480 1476 1478 1482 1478 1475 1465 1465 1462 1457 1453 1450 1454 1453 1448 1441 1436 1432 1442 1459 1462 1460 1474 1461 1472 1484 1489 1483 1481 1478 1476 1471 1465 1462
1488 1490 1488 1488 1487 1485 1483 1487 1488 1489 1490 1484 1483 1484 1482 1481 1477 1475 1471 1470 1463 1453 1454 1452 1448 1450 1445 1435 1428 1468 1473 1470 1482 1487 1479 1476 1484 1496 1492 1487 1481 1478 1475 1473 1472
1492 1493 1494 1490 1490 1487 1491 1493 1493 1492 1488 1487 1488 1484 1480 1477 1476 1472 1469 1463 1458 1459 1456 1456 1456 1461 1454 1432 1426 1449 1484 1488 1497 1502 1496 1494 1502 1499 1492 1487 1487 1483 1480 1475 1476